Wind_Speed
22 23 23 23 21 21 21 21 21 22 22 22 22 22 22 22 21 21 21 20 20 20 19 19 19 19 19 18 18 18 18 18 17 17 16 16 16 15 15 16 16 16 16
22 22 22 23 22 22 22 22 22 22 23 22 23 23 22 22 22 22 22 21 22 21 21 21 20 20 20 20 20 20 20 20 20 19 19 18 18 18 18 18 18 18 18
23 23 22 22 22 22 23 23 23 23 23 23 23 23 23 22 22 23 23 23 23 23 22 22 22 22 21 22 22 22 21 22 22 21 21 20 20 20 20 20 20 20 20
23 23 23 23 24 24 23 24 25 25 25 24 23 24 24 24 25 24 24 23 23 24 24 23 23 23 23 23 24 23 23 23 23 23 23 23 22 22 22 22 22 23 22
24 23 24 24 25 25 25 25 26 26 26 25 25 24 24 25 26 25 24 24 23 24 25 25 24 24 24 24 25 25 25 25 25 25 25 25 24 24 24 24 25 25 25
25 24 25 25 26 26 26 26 26 27 27 27 27 27 27 26 27 27 26 25 24 24 25 25 25 24 24 25 25 25 26 26 26 27 27 27 27 26 26 26 26 26 27
25 25 25 26 27 28 27 28 28 28 27 28 28 28 28 28 27 28 29 28 27 26 26 26 25 26 26 26 26 26 27 26 26 27 28 28 29 28 28 29 28 29 29
26 26 26 26 27 28 28 28 29 29 29 29 29 29 28 28 28 29 29 30 29 28 27 27 27 27 27 28 28 28 28 28 28 29 30 30 30 30 30 30 30 31 32
27 27 27 28 28 28 28 28 28 28 28 29 29 28 28 27 29 29 29 29 30 30 29 28 28 28 28 29 30 29 29 30 31 31 31 32 32 33 32 33 34 33 34
28 28 28 28 28 29 29 29 28 28 28 28 28 27 27 27 28 28 28 29 29 29 28 28 29 30 29 29 30 30 31 31 32 32 32 33 33 34 34 34 35 35 35
28 28 29 29 29 28 29 29 28 28 28 28 28 28 28 27 27 28 28 28 28 28 28 29 29 29 30 30 30 30 31 32 32 32 32 33 33 34 35 35 36 36 35
27 28 29 30 29 29 28 28 28 27 27 27 27 27 27 27 26 27 27 28 28 28 28 28 29 29 29 30 30 31 31 32 32 32 31 32 33 35 35 36 36 36 36
27 28 28 29 29 29 28 28 28 28 28 27 27 28 28 28 27 27 27 27 28 27 28 28 28 28 29 30 30 30 31 31 32 32 32 33 34 34 35 36 37 37 36
28 28 28 28 28 28 28 28 28 28 27 27 27 27 27 28 27 27 27 28 28 28 27 28 28 28 28 29 30 30 30 30 31 33 33 33 34 34 35 35 36 36 37
28 29 29 28 28 28 28 28 28 28 28 27 27 27 27 27 26 26 27 27 28 28 28 28 28 29 29 29 30 29 30 30 31 31 32 33 34 34 34 35 35 35 36
29 29 28 28 27 27 28 28 28 28 28 28 28 27 27 27 26 26 26 26 27 28 29 28 28 28 29 29 28 29 29 30 30 30 31 32 33 33 33 33 34 35 36
28 27 27 26 26 26 26 26 26 27 27 28 28 28 28 27 26 26 26 27 27 28 28 29 29 29 30 29 29 29 29 29 30 30 31 32 32 32 32 32 33 34 35
25 25 25 26 25 25 24 24 24 24 25 26 26 26 27 26 26 26 26 26 26 27 28 28 28 28 28 29 29 29 29 29 30 31 31 32 32 33 33 33 32 33 34
24 24 24 24 24 23 23 23 22 22 23 23 24 24 24 24 25 25 25 26 26 25 26 27 28 27 27 28 29 29 30 29 30 30 31 31 31 32 32 33 33 33 33
23 22 22 22 22 22 22 21 21 21 22 22 23 23 23 23 23 24 24 25 25 25 25 25 25 26 27 27 28 28 28 27 28 28 29 30 31 31 31 32 31 31 31
20 20 19 20 20 20 20 19 19 19 20 20 21 21 22 22 22 23 23 23 24 24 25 25 25 24 24 24 24 25 26 26 26 26 27 28 29 30 30 30 30 29 29
17 17 16 17 17 18 17 17 17 17 17 17 17 17 18 19 20 20 20 20 21 21 22 23 23 24 23 23 23 24 24 24 25 26 26 27 28 28 28 27 27 26 26
14 14 14 14 14 14 14 15 14 14 14 14 13 14 15 16 17 17 17 18 19 19 19 20 21 22 21 21 21 21 22 22 23 23 24 24 24 24 23 24 24 24 23
12 11 11 10 10 10 10 11 11 11 11 11 12 13 13 13 14 15 15 15 15 16 17 17 18 18 18 18 18 18 18 20 20 21 21 21 20 20 20 21 20 20 20
10 9 8 7 6 6 6 6 6 7 7 8 9 10 10 9 10 11 11 12 12 13 13 14 14 14 14 15 16 17 17 18 18 17 18 18 17 17 18 18 18 18 18
7 6 5 5 5 4 4 3 3 3 3 4 5 5 5 5 6 7 7 8 8 9 9 9 9 10 11 12 13 13 14 14 14 15 15 15 15 15 16 16 16 17 18
Wind_Direction
264 265 267 264 266 267 268 266 263 264 265 262 262 262 260 256 255 256 255 254 254 254 254 252 251 249 247 248 250 251 251 251 253 254 254 255 256 258 259 261 263 265 268
265 269 268 267 266 267 269 269 264 265 264 264 263 264 261 255 256 258 257 253 255 255 254 253 252 252 251 250 252 253 254 253 253 254 253 255 258 260 262 263 265 266 268
268 270 269 269 269 268 269 269 269 270 266 265 264 263 260 258 257 258 258 256 255 253 253 252 254 252 254 255 253 253 253 253 253 253 253 255 258 260 262 264 264 266 269
269 270 268 270 270 268 267 267 267 268 269 268 268 266 260 258 258 258 257 256 255 253 251 252 254 253 256 255 254 254 254 254 252 253 255 256 258 260 262 264 264 266 269
273 275 270 270 271 268 267 266 266 268 268 269 270 267 264 260 257 256 256 255 256 256 254 252 256 254 256 255 254 253 253 255 253 254 256 256 258 259 261 264 266 267 269
274 274 272 270 273 271 269 268 268 267 267 268 268 268 265 262 258 256 256 256 256 255 256 256 256 257 256 256 253 253 254 257 256 255 255 257 258 259 262 264 267 269 270
274 273 273 273 273 272 272 270 269 269 268 268 268 267 265 264 261 258 256 257 257 257 256 255 256 257 255 254 254 254 255 258 258 256 256 258 260 261 263 265 267 270 271
274 274 273 274 274 273 271 270 270 269 268 268 268 267 265 263 262 259 255 255 256 258 256 255 257 256 255 253 255 255 255 257 257 257 258 259 260 262 263 265 269 271 272
277 276 275 275 274 273 272 270 270 267 266 267 268 268 264 262 262 260 257 256 255 257 257 256 257 256 257 254 253 253 253 255 256 257 259 260 261 263 264 267 269 272 274
279 278 277 276 276 274 271 270 269 266 266 265 265 265 264 263 262 260 260 259 256 255 255 255 254 255 256 254 252 253 255 257 257 258 259 261 263 264 266 268 268 271 273
279 278 276 276 275 273 271 269 267 265 265 265 265 264 264 263 261 259 260 259 257 255 254 255 255 255 254 254 255 254 256 258 258 259 260 262 264 266 266 268 269 271 273
280 279 277 276 275 273 270 268 266 264 264 265 264 264 264 263 262 260 260 258 257 257 257 257 256 255 254 255 257 258 257 258 259 260 262 263 264 266 266 268 269 271 273
280 280 279 276 275 272 270 267 266 265 265 265 264 262 263 261 261 261 260 257 255 255 256 256 256 255 256 256 257 259 259 260 261 261 262 264 266 266 267 269 270 270 271
280 280 279 277 274 273 271 268 265 265 264 264 263 261 261 259 260 261 259 256 255 254 254 254 254 257 259 258 256 257 259 260 261 263 265 265 265 267 269 270 271 271 272
279 279 278 276 274 272 272 268 267 264 262 262 262 261 260 259 260 261 260 258 256 255 255 256 257 258 258 258 258 258 259 260 261 263 265 266 267 268 268 270 271 271 272
279 279 278 276 274 273 272 269 267 264 264 262 260 259 258 258 259 259 259 259 257 256 255 257 257 257 258 259 258 258 259 261 263 265 265 266 267 269 270 270 271 272 273
280 279 278 277 275 274 273 270 267 264 263 261 260 258 256 257 257 259 259 259 258 257 257 257 257 257 258 258 256 258 259 261 264 266 267 268 269 270 271 271 272 273 273
281 279 278 277 277 276 273 271 267 264 263 260 259 256 256 257 258 258 257 257 256 257 258 258 259 259 258 260 260 261 260 262 264 266 266 268 269 272 272 273 273 274 273
284 280 278 277 276 274 271 268 267 264 261 260 258 257 257 257 256 256 257 256 255 256 257 258 257 257 258 261 262 263 265 266 267 266 268 268 270 272 272 272 273 273 274
285 282 279 276 275 272 270 269 267 265 263 259 256 254 255 256 256 256 255 255 255 256 257 257 257 258 259 262 264 264 264 266 268 270 270 270 270 271 272 273 273 274 275
289 286 280 276 275 274 272 270 268 266 264 261 257 254 253 253 253 255 255 255 254 254 255 257 259 261 262 263 264 265 265 266 268 270 271 270 271 271 272 273 274 276 276
295 290 284 281 278 276 273 272 270 267 265 260 258 256 256 253 254 254 253 253 253 254 256 258 260 259 261 263 266 266 266 268 270 271 273 273 275 275 275 274 275 276 277
301 297 292 287 282 279 278 277 272 267 266 261 259 260 259 258 256 256 256 256 255 255 257 260 262 263 264 265 266 267 268 269 272 274 274 275 275 274 274 274 275 276 277
310 308 305 300 294 289 283 280 276 268 265 262 262 261 259 261 255 256 255 257 258 258 260 262 262 263 263 264 264 266 268 270 272 273 274 275 275 276 277 278 278 277 278
321 320 319 316 308 301 295 286 276 270 269 268 266 265 261 257 253 252 253 256 259 261 260 259 260 261 263 265 266 268 270 272 274 274 277 278 278 280 281 281 281 281 282
335 340 343 345 343 341 333 317 301 289 283 278 271 263 259 254 250 249 251 253 256 257 259 262 267 270 270 269 269 270 271 274 276 278 278 281 283 283 283 282 283 284 285
Height
5870 5871 5870 5870 5870 5870 5870 5870 5871 5871 5871 5871 5871 5871 5871 5872 5873 5874 5874 5875 5876 5876 5877 5877 5878 5879 5879 5880 5880 5881 5882 5882 5883 5883 5884 5884 5884 5885 5885 5885 5885 5885 5885
5865 5866 5865 5865 5865 5865 5865 5865 5865 5866 5866 5866 5866 5866 5866 5866 5868 5869 5870 5870 5871 5872 5872 5873 5874 5874 5875 5876 5876 5877 5877 5878 5879 5879 5880 5880 5881 5881 5881 5881 5881 5881 5881
5860 5860 5860 5860 5860 5860 5860 5860 5860 5861 5861 5861 5861 5861 5861 5861 5862 5863 5865 5866 5866 5867 5867 5868 5869 5870 5870 5871 5872 5872 5873 5873 5874 5875 5876 5876 5877 5877 5877 5877 5877 5877 5877
5855 5855 5855 5855 5854 5854 5854 5855 5855 5855 5855 5856 5855 5856 5856 5856 5857 5858 5859 5860 5860 5861 5862 5863 5864 5865 5865 5866 5867 5867 5868 5869 5870 5870 5871 5872 5872 5872 5873 5873 5873 5873 5872
5849 5849 5849 5848 5848 5848 5848 5848 5849 5849 5850 5850 5850 5850 5850 5850 5851 5851 5852 5853 5854 5855 5856 5857 5858 5859 5860 5860 5861 5862 5863 5863 5864 5865 5866 5866 5867 5867 5867 5867 5867 5867 5867
5843 5843 5842 5842 5842 5842 5842 5842 5842 5843 5843 5843 5843 5844 5844 5844 5844 5845 5846 5847 5848 5849 5850 5851 5852 5853 5854 5855 5856 5857 5857 5858 5859 5860 5860 5861 5861 5861 5862 5862 5862 5861 5861
5837 5837 5836 5835 5835 5835 5834 5835 5835 5835 5836 5836 5837 5837 5837 5837 5837 5838 5839 5840 5842 5843 5844 5845 5846 5847 5848 5849 5850 5851 5851 5852 5852 5853 5854 5854 5855 5855 5855 5855 5855 5855 5855
5830 5830 5830 5829 5828 5828 5827 5827 5828 5828 5829 5829 5829 5830 5830 5831 5831 5831 5832 5834 5835 5836 5837 5838 5840 5841 5842 5843 5844 5844 5845 5846 5846 5847 5847 5848 5848 5848 5848 5848 5848 5848 5847
5823 5822 5822 5822 5821 5820 5820 5820 5820 5820 5821 5821 5822 5822 5823 5823 5824 5824 5825 5826 5828 5829 5830 5832 5833 5834 5835 5836 5837 5837 5838 5839 5839 5840 5840 5841 5841 5841 5841 5841 5841 5840 5839
5815 5815 5814 5814 5813 5813 5812 5812 5813 5813 5813 5814 5814 5815 5816 5816 5816 5817 5818 5819 5820 5822 5823 5825 5826 5827 5828 5829 5830 5831 5831 5832 5832 5832 5833 5833 5833 5833 5833 5833 5832 5832 5831
5808 5807 5806 5806 5805 5805 5805 5805 5805 5805 5806 5806 5806 5807 5808 5808 5809 5810 5811 5812 5813 5815 5816 5817 5819 5820 5821 5822 5822 5823 5824 5824 5825 5825 5825 5825 5825 5825 5825 5824 5824 5823 5822
5800 5799 5798 5798 5797 5797 5797 5797 5797 5797 5798 5798 5799 5800 5800 5801 5802 5802 5803 5805 5806 5807 5808 5809 5811 5812 5813 5814 5815 5815 5816 5816 5817 5817 5817 5817 5817 5817 5816 5816 5815 5814 5813
5792 5791 5790 5790 5789 5789 5789 5789 5789 5789 5790 5790 5791 5792 5793 5794 5794 5795 5796 5797 5799 5800 5801 5802 5803 5804 5805 5806 5807 5808 5808 5808 5808 5809 5809 5809 5809 5808 5808 5807 5806 5805 5804
5785 5784 5783 5782 5781 5781 5781 5781 5781 5781 5782 5782 5783 5784 5785 5786 5787 5787 5789 5790 5791 5792 5794 5795 5796 5796 5797 5798 5799 5800 5800 5800 5800 5800 5800 5800 5800 5799 5798 5798 5796 5795 5794
5777 5776 5775 5774 5773 5773 5772 5772 5772 5773 5773 5774 5775 5776 5777 5778 5779 5780 5781 5782 5784 5785 5786 5787 5788 5789 5789 5790 5791 5791 5792 5792 5792 5792 5792 5792 5791 5790 5789 5789 5787 5786 5785
5769 5767 5766 5765 5765 5765 5764 5764 5764 5764 5765 5766 5767 5768 5769 5770 5771 5772 5773 5774 5775 5777 5778 5779 5780 5781 5782 5782 5783 5783 5784 5784 5784 5783 5783 5783 5782 5781 5781 5779 5778 5777 5775
5761 5759 5758 5757 5757 5756 5756 5756 5756 5756 5756 5757 5758 5760 5761 5762 5764 5765 5766 5766 5768 5769 5770 5771 5772 5773 5774 5775 5775 5775 5775 5775 5775 5775 5775 5774 5773 5773 5772 5770 5769 5767 5766
5753 5751 5750 5750 5749 5749 5748 5748 5748 5748 5749 5749 5750 5752 5753 5754 5756 5757 5758 5759 5760 5761 5763 5763 5764 5765 5766 5766 5767 5767 5767 5767 5767 5767 5766 5766 5765 5764 5763 5761 5760 5758 5757
5745 5744 5743 5742 5742 5741 5741 5741 5741 5741 5741 5742 5743 5744 5745 5747 5748 5750 5751 5752 5753 5754 5755 5756 5757 5757 5758 5758 5758 5759 5759 5759 5758 5758 5757 5757 5756 5755 5754 5752 5751 5749 5748
5737 5736 5735 5735 5735 5734 5734 5734 5734 5734 5735 5735 5736 5737 5738 5740 5742 5743 5744 5745 5746 5747 5748 5749 5749 5750 5750 5751 5751 5751 5751 5751 5750 5750 5749 5748 5747 5746 5745 5744 5742 5741 5739
5731 5730 5729 5728 5728 5728 5727 5727 5728 5728 5728 5729 5730 5731 5732 5733 5734 5736 5737 5738 5739 5740 5741 5742 5742 5743 5743 5744 5744 5744 5744 5743 5743 5742 5741 5740 5739 5738 5737 5735 5734 5733 5731
5726 5724 5723 5722 5722 5722 5721 5722 5722 5722 5723 5723 5724 5725 5726 5727 5728 5729 5730 5731 5732 5733 5734 5735 5736 5737 5737 5737 5737 5737 5737 5737 5736 5735 5734 5733 5732 5730 5729 5728 5726 5725 5724
5722 5720 5719 5718 5717 5717 5717 5717 5717 5717 5718 5719 5719 5720 5721 5722 5722 5724 5725 5725 5726 5727 5729 5730 5730 5730 5731 5731 5731 5731 5730 5730 5729 5728 5727 5726 5725 5723 5722 5721 5720 5718 5717
5719 5717 5716 5715 5714 5713 5713 5713 5713 5714 5714 5715 5716 5716 5717 5717 5718 5719 5720 5721 5722 5722 5723 5724 5724 5724 5725 5725 5725 5725 5724 5724 5723 5722 5721 5720 5719 5718 5716 5715 5714 5712 5711
5717 5715 5714 5712 5712 5711 5711 5711 5711 5711 5712 5712 5713 5713 5714 5714 5715 5715 5717 5717 5718 5718 5718 5719 5719 5719 5719 5719 5719 5720 5719 5718 5718 5717 5716 5715 5714 5712 5711 5710 5708 5707 5706
5716 5714 5713 5712 5711 5710 5710 5710 5710 5710 5710 5710 5711 5711 5711 5712 5712 5713 5714 5714 5714 5715 5715 5715 5715 5715 5715 5715 5715 5715 5714 5713 5713 5712 5711 5710 5709 5708 5707 5706 5704 5703 5701